Location: Newark
(25.4297°S, 49.2719°W)
Time: 12:43:59
(UTC+00:00)

Vanguard 1 Rocket - Pass Details

Date: 20 November 2019
Orbit: 650 x 4226 km, 34.3° (Epoch: 05 December)

Event Time Altitude Azimuth Distance (km) Brightness Sun altitude
Rises 17:26:41 0° 288° (WNW) 6,729 12.3 56.4°
Reaches altitude 10° 17:30:29 10° 286° (WNW) 6,078 12.3 55.5°
Maximum altitude 17:52:47 79° 199° (SSW) 4,223 11.8 50.5°
Drops below altitude 10° 18:18:48 10° 111° (ESE) 6,857 11.6 44.6°
Sets 18:23:28 0° 109° (ESE) 7,570 11.7 43.6°
